DO5RS-5 Weather Reports


time (UTC)temp
C
wind
direction
speed
KPH
gust
KPH
rain 1hr
cm
rain 24hr
cm
rain mn
cm
humidity
%
barometer
mb
20200227115905 4 0.0 0.0 0.00 0.00 0.00 71 1004.5
20200227114904 4 0.0 0.0 0.00 0.00 0.00 70 1004.8
20200227113905 5 0.0 0.0 0.00 0.00 0.00 69 1005.0
20200227112904 5 0.0 0.0 0.00 0.00 0.00 68 1005.3
20200227111904 5 0.0 0.0 0.00 0.00 0.00 67 1005.8
20200227110904 5 0.0 0.0 0.00 0.00 0.00 67 1006.0
20200227104903 5 0.0 0.0 0.00 0.00 0.00 66 1006.5
20200227103904 5 0.0 0.0 0.00 0.00 0.00 66 1006.8
20200227102905 5 0.0 0.0 0.00 0.00 0.00 67 1007.1
20200227101904 5 0.0 0.0 0.00 0.00 0.00 67 1007.4
20200227100904 4 0.0 0.0 0.00 0.00 0.00 67 1007.9
20200227095909 5 0.0 0.0 0.00 0.00 0.00 68 1008.0
20200227092904 4 0.0 0.0 0.00 0.00 0.00 70 1008.9
20200227085904 3 0.0 0.0 0.00 0.00 0.00 71 1009.5
20200227084904 3 0.0 0.0 0.00 0.00 0.00 70 1009.7
20200227083905 3 0.0 0.0 0.00 0.00 0.00 71 1009.8
20200227074905 3 0.0 0.0 0.00 0.00 0.00 74 1010.8
20200227072905 2 0.0 0.0 0.00 0.00 0.00 75 1011.1
20200227070905 2 0.0 0.0 0.00 0.00 0.00 77 1011.1
20200227065904 2 0.0 0.0 0.00 0.00 0.00 77 1011.1
20200227064904 2 0.0 0.0 0.00 0.00 0.00 78 1011.1
20200227063905 2 0.0 0.0 0.00 0.00 0.00 78 1011.3
20200227060904 2 0.0 0.0 0.00 0.00 0.00 79 1011.4
20200227052904 2 0.0 0.0 0.00 0.00 0.00 80 1012.0
20200227051904 2 0.0 0.0 0.00 0.00 0.00 80 1012.0
20200227042905 1 0.0 0.0 0.00 0.00 0.00 81 1012.4
20200227041904 2 0.0 0.0 0.00 0.00 0.00 80 1012.5
20200227035904 2 0.0 0.0 0.00 0.00 0.00 80 1012.5
20200227034905 2 0.0 0.0 0.00 0.00 0.00 81 1012.4
20200227033904 2 0.0 0.0 0.00 0.00 0.00 80 1012.5
20200227032905 2 0.0 0.0 0.00 0.00 0.00 81 1012.5
20200227030905 1 0.0 0.0 0.00 0.00 0.00 81 1012.7
20200227025905 2 0.0 0.0 0.00 0.00 0.00 79 1012.7
20200227024905 2 0.0 0.0 0.00 0.00 0.00 79 1012.6
20200227021904 2 0.0 0.0 0.00 0.00 0.00 77 1012.9
20200227020905 2 0.0 0.0 0.00 0.00 0.00 77 1012.8
20200227015904 2 0.0 0.0 0.00 0.00 0.00 78 1012.8
20200227014910 2 0.0 0.0 0.00 0.00 0.00 76 1012.7
20200227012905 2 0.0 0.0 0.00 0.00 0.00 76 1012.2
20200227011905 2 0.0 0.0 0.00 0.00 0.00 77 1012.8
20200227005905 2 0.0 0.0 0.00 0.00 0.00 78 1012.9
20200227003903 2 0.0 0.0 0.00 0.00 0.00 78 1012.7
20200227002905 2 0.0 0.0 0.00 0.00 0.00 78 1012.8
20200227001904 2 0.0 0.0 0.00 0.00 0.00 77 1012.7
20200227000904 2 0.0 0.0 0.00 0.00 0.00 78 1012.8
20200226235905 2 0.0 0.0 0.00 0.00 0.00 78 1012.8
20200226233905 2 0.0 0.0 0.00 0.00 0.00 77 1012.6
20200226232904 2 0.0 0.0 0.00 0.00 0.00 77 1012.7
20200226231905 3 0.0 0.0 0.00 0.00 0.00 76 1012.5
20200226225905 2 0.0 0.0 0.00 0.00 0.00 76 1012.5
20200226224904 2 0.0 0.0 0.00 0.00 0.00 76 1012.4
20200226223905 2 0.0 0.0 0.00 0.00 0.00 76 1012.3
20200226222905 2 0.0 0.0 0.00 0.00 0.00 76 1012.3
20200226221904 2 0.0 0.0 0.00 0.00 0.00 75 1012.3
20200226215905 2 0.0 0.0 0.00 0.00 0.00 75 1012.1
20200226213905 2 0.0 0.0 0.00 0.00 0.00 74 1012.1
20200226212905 3 0.0 0.0 0.00 0.00 0.00 74 1012.0
20200226205903 3 0.0 0.0 0.00 0.00 0.00 72 1011.6
20200226204904 3 0.0 0.0 0.00 0.00 0.00 73 1011.5
20200226195905 3 0.0 0.0 0.00 0.00 0.00 78 1011.0
20200226193905 2 0.0 0.0 0.00 0.00 0.00 77 1008.7
20200226190904 2 0.0 0.0 0.00 0.00 0.00 78 1010.7
20200226185905 2 0.0 0.0 0.00 0.00 0.00 78 1010.7
20200226184904 2 0.0 0.0 0.00 0.00 0.00 78 1010.5
20200226183904 3 0.0 0.0 0.00 0.00 0.00 77 1010.5
20200226181904 3 0.0 0.0 0.00 0.00 0.00 77 1010.3
20200226175904 3 0.0 0.0 0.00 0.00 0.00 76 1009.8
20200226172904 3 0.0 0.0 0.00 0.00 0.00 76 1009.3
20200226171912 3 0.0 0.0 0.00 0.00 0.00 76 1009.0
20200226163904 4 0.0 0.0 0.00 0.00 0.00 72 1008.5
20200226162905 4 0.0 0.0 0.00 0.00 0.00 70 1008.3
20200226161905 4 0.0 0.0 0.00 0.00 0.00 69 1007.9
20200226155904 5 0.0 0.0 0.00 0.00 0.00 69 1007.8
20200226155804 5 0.0 0.0 0.00 0.00 0.00 69 1007.7
20200226155604 5 0.0 0.0 0.00 0.00 0.00 70 1007.7
20200226155503 5 0.0 0.0 0.00 0.00 0.00 69 1007.7
20200226155304 5 0.0 0.0 0.00 0.00 0.00 69 1007.6
20200226155104 5 0.0 0.0 0.00 0.00 0.00 69 1007.6
20200226155003 5 0.0 0.0 0.00 0.00 0.00 69 1007.6